Volver al catálogo

ONEWEB-0560

ActivoComunicacionesPO
NORAD 55145·PAYLOAD·🇬🇧 United Kingdom

Lanzado Jan 10, 2023 desde Cape Canaveral Space Force Station

Loading…

Próximos Pases (próximas 24 horas)

TLE

ActualizadoSource: CelesTrak SupGP

Época: Sep 14, 2026, 11:32 UTC

1 55145C 23004F   26257.48071019  .00001685  00000+0  42801-2 0  2574
2 55145  87.9165 317.7143 0001861  90.7937  21.6308 13.18685716    12

Sigue ONEWEB-0560 en tiempo real con AllMySat

Download on the App Store